SCP
-0 -0 -0 0 0 0 0 0 0 0 0 0 0 0 0 0 0 0 0 0 0 0 0 0 0 0 0 0 0 0 0 0 0 0 0 0 0 0 0 0 0 0 0 0 0 0 0 0 0
-0 -0 -0 0 0 0 0 0 0 0 0 0 0 0 0 0 0 0 0 0 0 0 0 0 0 0 0 0 0 0 0 0 0 0 0 0 0 0 0 0 0 0 0 0 0 0 0 0 0
0 0 0 0 0 0 0 0 0 0 0 0 0 0 0 0 0 0 0 0 0 0 0 0 0 0 0 0 0 0 0 0 0 0 0 0 0 0 0 0 0 0 0 0 0 0 0 0 0
0 0 0 0 0 0 0 0 0 0 0 0 0 0 0 0 0 0 0 0 0 0 0 0 0 0 0 0 0 0 0 0 0 0 0 0 0 0 0 0 0 0 0 0 0 0 0 0 0
0 0 0 0 0 0 0 0 0 0 0 0 0 0 0 0 0 0 0 0 0 0 0 0 0 0 0 0 0 0 0 0 0 0 0 0 0 0 0 0 0 0 0 0 0 0 0 0 0
0 0 0 0 0 0 0 0 0 0 0 0 0 0 0 0 0 0 0 0 0 0 0 0 0 0 0 0 0 0 0 0 0 0 0 0 0 0 0 0 0 0 0 0 0 0 0 0 0
0 0 0 0 0 0 0 0 0 0 0 0 0 0 0 0 0 0 0 0 0 0 0 0 0 0 0 0 0 0 0 0 0 0 0 0 0 0 0 0 0 0 0 0 0 0 0 0 0
0 0 0 0 0 0 0 0 0 0 0 0 0 0 0 0 0 0 0 0 0 0 0 0 0 0 0 0 0 0 0 0 0 0 0 0 0 0 0 0 0 0 0 0 0 0 0 0 0
0 0 0 0 0 0 0 0 0 0 0 0 0 0 0 0 0 0 0 0 0 0 0 0 0 0 0 0 0 0 0 0 0 0 0 0 0 0 0 0 0 0 0 0 0 0 0 0 0
0 0 0 0 0 0 0 0 0 0 0 0 0 0 0 0 0 0 0 0 0 0 0 0 0 0 0 0 0 0 0 0 0 0 0 0 0 0 0 0 0 0 0 0 0 0 0 0 0
0 0 0 0 0 0 0 0 0 0 0 0 0 0 0 0 0 0 0 0 0 0 0 0 0 0 0 0 0 0 0 0 0 0 0 0 0 0 0 0 0 0 0 0 0 0 0 0 0
0 0 0 0 0 0 0 0 0 0 0 0 0 0 0 0 0 0 0 0 0 0 0 0 0 0 0 0 0 0 0 0 0 0 0 0 0 0 0 0 0 0 0 0 0 0 0 0 0
0 0 0 0 0 0 0 0 0 0 0 0 0 0 0 0 0 0 0 0 0 0 0 0 0 0 0 0 0 0 0 0 0 0 0 0 0 0 0 0 0 0 0 0 0 0 0 0 0
0 0 0 0 0 0 0 0 0 0 0 0 0 0 0 0 0 0 0 0 0 0 0 0 0 0 0 0 0 0 0 0 0 0 0 0 0 0 0 0 0 0 0 0 0 0 0 0 0
0 0 0 0 0 0 0 0 0 0 0 0 0 0 0 0 0 0 0 0 0 0 0 0 0 0 0 0 0 0 0 0 0 0 0 0 0 0 0 0 0 0 0 0 0 0 0 0 0
0 0 0 0 0 0 0 0 0 0 0 0 0 0 0 0 0 0 0 0 0 0 0 0 0 0 0 0 0 0 0 0 0 0 0 0 0 0 0 0 0 0 0 0 0 0 0 0 0
0 0 0 0 0 0 0 0 0 0 0 0 0 0 0 0 0 0 0 0 0 0 0 0 0 0 0 0 0 0 0 0 0 0 0 0 0 0 0 0 0 0 0 0 0 0 0 0 0
0 0 0 0 0 0 0 0 0 0 0 0 0 0 0 0 0 0 0 0 0 0 0 0 0 0 0 0 0 0 0 0 0 0 0 0 0 0 0 0 0 0 0 0 0 0 0 0 0
0 0 0 0 0 0 0 0 0 0 0 0 0 0 0 0 0 0 0 0 0 0 0 0 0 0 0 0 0 0 0 0 0 0 0 0 0 0 0 0 0 0 0 0 0 0 0 0 0
0 0 0 0 0 0 0 0 0 0 0 0 0 0 0 0 0 0 0 0 0 0 0 0 0 0 0 0 0 0 0 0 0 0 0 0 0 0 0 0 0 0 0 0 0 0 0 0 0
0 0 0 0 0 0 0 0 0 0 0 0 0 0 0 0 0 0 0 0 0 0 0 0 0 0 0 0 0 0 0 0 0 0 0 0 0 0 0 0 0 0 0 0 0 0 0 0 0
0 0 0 0 0 0 0 0 0 0 0 0 0 0 0 0 0 0 0 0 0 0 0 0 0 0 0 0 0 0 0 0 0 0 0 0 0 0 0 0 0 0 0 0 0 0 0 0 0
0 0 0 0 0 0 0 0 0 0 0 0 0 0 0 0 0 0 0 0 0 0 0 0 0 0 0 0 0 0 0 0 0 0 0 0 0 0 0 0 0 0 0 0 0 0 0 0 0
0 0 0 0 0 0 0 0 0 0 0 0 0 0 0 0 0 0 0 0 0 0 0 0 0 0 0 0 0 0 0 0 0 0 0 0 0 0 0 0 0 0 0 0 0 0 0 0 0
0 0 0 0 0 0 0 0 0 0 0 0 0 0 0 0 0 0 0 0 0 0 0 0 0 0 0 0 0 0 0 0 0 0 0 0 0 0 0 0 0 0 0 0 0 0 0 0 0
0 0 0 0 0 0 0 0 0 0 0 0 0 0 0 0 0 0 0 0 0 0 0 0 0 0 0 0 0 0 0 0 0 0 0 0 0 0 0 0 0 0 0 0 0 0 0 0 0
0 0 0 0 0 0 0 0 0 0 0 0 0 0 0 0 0 0 0 0 0 0 0 0 0 0 0 0 0 0 0 0 0 0 0 0 0 0 0 0 0 0 0 0 0 0 0 0 0
0 0 0 0 0 0 0 0 0 0 0 0 0 0 0 0 0 0 0 0 0 0 0 0 0 0 0 0 0 0 0 0 0 0 0 0 0 0 0 0 0 0 0 0 0 0 0 0 0
0 0 0 0 0 0 0 0 0 0 0 0 0 0 0 0 0 0 0 0 0 0 0 0 0 0 0 0 0 0 0 0 0 0 0 0 0 0 0 0 0 0 0 0 0 0 0 0 0
0 0 0 0 0 0 0 0 0 0 0 0 0 0 0 0 0 0 0 0 0 0 0 0 0 0 0 0 0 0 0 0 0 0 0 0 0 0 0 0 0 0 0 0 0 0 0 0 0
Wind_Speed
3 3 3 5 7 6 1 2 4 3 3 2 2 3 6 7 6 4 1 4 5 4 2 5 10 9 8 8 8 8 9 10 11 12 13 14 15 16 16 17 18 19 20 20 21 22 23 23 24
1 2 5 6 6 1 4 3 5 5 5 5 3 2 3 3 1 3 4 5 5 5 4 3 10 9 8 8 8 8 8 9 10 11 12 13 14 15 16 16 17 18 18 19 20 21 22 22 23
2 4 5 6 4 4 3 3 5 3 5 4 3 0 2 4 4 6 5 7 5 5 4 3 11 10 9 8 7 7 8 9 10 11 12 12 13 14 15 15 16 17 17 18 19 19 20 21 22
3 5 6 5 1 2 2 1 5 6 3 2 4 2 3 2 5 6 6 7 7 5 3 3 12 10 9 8 7 6 7 8 9 10 11 12 12 13 14 14 15 15 16 17 18 19 20 20 21
5 5 5 3 2 2 2 3 7 7 6 4 5 3 3 2 3 7 8 8 8 5 2 2 11 10 9 8 7 6 7 7 8 10 11 11 12 12 12 13 14 14 15 16 17 18 19 20 21
5 5 4 2 4 2 2 4 6 5 4 4 5 3 4 3 6 8 9 7 7 6 3 1 10 11 9 8 7 6 6 7 8 9 10 10 11 11 12 12 13 14 14 15 16 17 18 19 20
5 4 3 3 3 4 4 6 5 6 5 7 7 5 3 4 6 8 8 7 6 6 4 2 3 4 8 8 7 7 7 7 7 8 9 10 10 10 11 12 12 13 14 14 16 17 18 18 19
5 6 3 2 4 6 5 6 4 8 6 3 8 7 5 6 8 7 6 5 5 4 4 4 3 4 4 2 6 8 7 7 7 8 9 9 9 9 10 10 11 12 13 13 15 16 17 18 18
3 5 3 6 8 6 5 6 3 2 4 3 4 4 0 10 12 9 5 4 4 6 5 5 5 4 4 3 4 5 6 7 7 5 8 8 4 3 5 8 11 11 12 13 14 15 16 16 16
4 3 7 5 6 4 6 7 7 4 3 5 5 3 5 11 14 14 12 11 11 9 7 6 6 6 5 4 4 3 3 4 5 4 5 4 3 2 4 7 10 10 11 12 13 14 14 11 5
1 4 2 1 2 3 6 5 6 7 10 12 10 9 9 11 14 15 14 12 12 9 8 8 7 7 6 4 4 3 3 3 4 5 5 4 3 2 2 2 3 4 6 4 7 7 4 4 4
2 1 1 2 1 3 5 5 5 10 12 7 8 10 11 17 19 20 18 13 10 9 10 9 8 7 7 5 4 4 3 3 3 5 6 4 3 2 2 1 1 1 1 2 3 3 5 5 5
1 1 1 1 1 2 3 4 5 10 11 4 6 11 15 18 18 17 13 11 11 12 13 11 10 9 7 6 5 5 5 5 5 4 5 5 4 3 3 1 1 1 1 2 3 3 4 5 5
1 1 2 1 1 1 2 4 4 13 6 7 8 11 14 18 19 14 13 14 16 16 15 12 12 11 9 7 6 5 5 5 5 5 6 7 5 4 3 3 1 1 1 1 1 3 3 3 4
1 2 3 2 1 0 1 8 12 10 4 7 10 10 12 14 14 18 18 18 18 15 14 14 14 12 10 9 9 6 5 5 5 5 6 7 6 5 4 3 3 2 2 2 2 3 3 4 4
2 3 4 4 4 1 2 13 12 4 8 11 10 10 11 13 14 16 16 15 14 13 14 15 14 13 12 10 8 6 6 6 5 5 5 7 7 6 5 4 4 3 3 2 3 3 3 4 4
3 3 4 6 4 3 5 13 10 2 6 11 10 10 12 12 13 15 15 15 14 15 15 16 15 14 14 11 8 6 6 6 5 5 5 7 7 7 5 5 4 4 3 3 4 3 3 4 5
4 4 5 7 3 5 7 16 18 7 8 12 12 11 11 14 19 15 15 14 13 13 14 15 16 14 12 8 5 4 5 5 5 6 7 8 7 8 6 5 5 4 3 4 4 4 4 4 5
2 4 7 8 4 6 11 19 23 14 10 14 15 13 14 18 14 9 13 13 12 13 15 16 16 14 11 7 7 6 6 5 5 7 8 9 8 8 7 5 5 5 5 5 5 4 4 4 3
3 5 7 7 2 5 8 17 19 14 12 15 16 15 16 14 9 10 11 13 17 17 17 17 18 17 16 12 7 5 4 4 5 5 7 9 9 9 8 7 6 6 5 5 5 5 3 3 2
4 6 6 6 4 3 7 14 9 8 5 7 10 11 11 14 15 11 13 15 16 18 21 19 20 19 17 13 7 4 3 2 4 6 7 9 10 10 8 8 7 6 6 6 6 6 6 4 3
7 6 5 3 3 6 3 10 12 7 9 9 11 11 13 14 13 11 12 14 18 21 17 17 18 18 16 15 14 13 12 11 11 7 7 8 10 9 9 8 8 7 6 6 7 6 5 5 5
7 0 0 1 2 5 3 6 14 7 9 11 10 11 13 13 13 14 15 17 17 15 14 15 15 16 17 18 19 18 15 10 5 5 7 8 8 9 9 9 8 8 7 7 7 6 6 5 6
2 3 3 4 3 5 5 5 13 8 9 9 8 8 9 10 10 12 11 9 10 11 12 13 16 18 17 19 19 20 19 13 9 9 9 8 6 7 9 9 8 8 7 8 8 8 8 7 8
3 3 5 6 3 7 2 4 15 15 10 9 12 12 9 8 8 10 10 11 12 12 14 14 17 18 18 19 20 21 20 17 17 14 13 10 8 8 11 10 9 8 8 8 8 7 8 8 9
3 5 5 4 6 7 3 9 14 14 9 9 10 11 11 10 8 10 10 11 11 12 13 15 18 19 18 20 21 18 17 13 12 14 11 12 10 10 9 11 10 9 9 9 8 7 8 7 9
4 4 3 3 4 5 9 10 15 11 8 6 7 8 11 11 10 10 9 8 9 10 13 16 17 17 18 19 18 17 17 16 15 13 12 9 9 8 10 10 10 10 9 9 8 7 8 7 9
2 5 4 2 3 7 8 7 8 10 12 11 10 10 11 10 9 9 8 8 8 9 9 10 14 16 16 16 17 15 17 17 14 12 13 12 12 10 10 11 10 10 9 9 8 8 8 9 9
4 3 4 2 3 4 7 10 9 10 12 11 13 12 11 11 11 10 9 7 7 7 8 11 13 13 14 16 16 16 15 15 14 14 15 14 12 12 12 12 11 10 10 9 9 9 8 10 11
6 6 7 4 6 6 5 14 11 11 11 10 12 13 12 12 11 10 10 8 6 7 8 10 11 13 14 13 14 15 14 14 16 16 15 14 14 13 12 11 11 11 10 9 10 10 10 10 11
Wind_Direction
53 61 62 56 55 52 147 210 170 160 171 128 110 139 165 173 174 199 133 174 143 137 114 130 133 122 109 95 81 70 61 54 48 44 41 38 36 35 32 30 29 28 28 27 27 26 27 26 25
73 58 54 59 83 49 271 205 187 194 157 134 109 114 140 196 188 138 168 194 159 136 109 117 140 129 118 105 90 77 68 59 52 47 43 39 37 36 32 29 29 28 27 27 26 26 25 24 23
81 51 77 74 106 185 241 201 182 116 140 143 127 141 204 207 190 188 200 168 150 138 121 173 142 136 126 114 100 85 74 65 57 51 46 41 38 38 32 29 29 27 27 26 26 26 25 23 21
78 47 54 74 168 211 241 216 152 130 161 154 151 200 248 226 186 187 158 153 144 147 133 197 148 143 135 125 112 96 81 71 63 57 50 43 40 39 33 28 29 26 26 25 25 26 25 23 20
59 74 60 43 256 255 241 203 159 161 184 180 175 202 243 190 145 144 147 154 152 157 152 217 158 151 144 136 125 109 92 80 70 64 56 46 41 40 34 28 29 27 26 25 25 25 24 23 19
59 68 89 253 259 266 232 173 159 174 174 173 182 204 235 154 150 161 157 163 162 157 146 26 171 159 155 147 138 123 107 94 81 73 64 51 44 40 34 28 29 28 27 25 24 24 23 23 19
108 112 178 218 247 268 215 167 178 175 189 204 184 193 233 192 189 161 157 158 163 155 142 111 71 137 158 156 152 139 124 110 96 85 77 62 51 42 37 27 29 29 28 25 24 23 22 22 17
118 106 119 202 224 252 194 170 195 172 203 176 165 189 235 199 156 138 141 155 168 167 163 151 127 112 101 109 161 149 137 124 111 100 92 77 61 47 38 25 27 29 28 24 24 23 22 22 15
91 88 216 218 206 237 170 176 189 166 142 186 215 217 101 133 133 135 148 176 191 191 191 173 163 155 149 153 160 141 139 132 115 102 106 97 84 64 33 22 31 29 29 23 23 23 21 22 13
87 168 230 210 194 204 180 188 180 158 192 226 241 204 119 140 158 171 182 189 194 196 198 191 181 174 169 162 127 122 117 118 124 122 116 119 116 96 71 35 35 31 30 24 23 23 22 19 8
75 204 235 174 212 177 172 196 182 175 224 216 209 189 154 165 178 190 197 195 196 193 195 191 189 181 174 163 156 153 143 142 147 152 150 140 126 96 82 59 34 25 31 26 18 18 16 8 359
90 359 344 319 206 169 184 182 197 211 226 210 199 161 167 179 190 198 201 198 189 189 199 193 189 184 184 174 170 167 165 165 169 172 165 155 154 156 153 136 87 40 22 13 12 8 1 356 347
91 325 1 358 118 182 175 205 232 244 238 214 155 158 181 191 199 205 204 194 190 198 200 196 189 190 184 178 183 178 181 180 179 176 177 171 168 171 170 167 141 27 13 9 355 351 344 334 322
131 358 318 339 69 159 213 257 246 257 229 197 184 191 196 200 203 200 200 200 200 203 202 196 194 194 185 186 189 185 185 183 179 182 186 182 177 175 175 179 185 224 259 284 299 297 298 291 288
130 351 313 238 199 246 336 287 236 242 162 209 216 213 209 213 207 206 205 206 203 202 199 197 198 194 192 193 194 189 188 183 186 189 189 187 183 181 178 183 200 218 225 243 259 273 265 263 267
39 13 312 272 190 153 162 270 267 233 195 230 230 225 223 222 218 218 212 210 203 198 197 200 200 195 198 197 193 189 188 189 194 190 188 192 190 184 180 188 208 213 209 222 243 252 257 259 264
19 315 279 293 196 164 203 256 272 161 204 242 243 231 228 231 230 223 215 210 203 200 198 199 201 196 197 197 192 189 187 196 196 190 191 195 194 188 184 195 209 206 207 220 244 244 230 255 266
268 263 269 269 229 182 230 256 268 234 218 244 249 242 233 234 235 221 213 209 204 201 201 202 202 200 191 186 180 185 198 206 199 197 198 194 195 192 188 198 209 204 208 223 229 245 244 240 257
229 240 264 264 219 196 242 260 270 265 230 244 246 241 239 241 240 209 205 203 199 200 202 203 202 198 184 178 182 186 204 202 203 206 201 197 195 193 190 199 202 202 210 222 222 231 257 258 243
228 263 272 283 215 211 275 275 269 263 238 234 237 236 235 240 239 212 202 199 202 204 205 204 205 199 196 196 181 175 173 190 200 200 201 200 197 195 196 197 201 203 211 223 224 214 234 257 250
240 227 249 272 320 274 309 295 287 290 251 254 240 237 235 231 237 221 205 206 205 208 207 206 205 202 199 188 165 147 135 149 179 199 204 202 198 196 196 194 197 202 203 217 221 211 216 243 249
261 243 232 276 321 298 351 300 291 288 298 268 250 236 237 235 233 226 209 208 210 214 207 207 203 202 196 186 188 188 195 203 201 192 193 192 195 196 196 196 197 203 206 215 223 218 211 220 248
229 351 142 299 247 298 260 245 284 313 286 273 257 240 236 232 225 227 218 216 215 210 202 204 201 202 197 195 199 201 210 210 179 175 185 193 196 198 198 199 199 204 209 214 219 222 218 216 231
139 60 51 53 69 288 241 199 282 266 247 276 289 271 254 245 233 234 228 216 214 200 198 197 200 205 199 199 203 206 211 199 183 187 192 195 196 200 202 203 202 206 209 215 220 223 225 228 232
94 70 348 337 340 260 200 214 254 259 251 252 275 288 290 273 248 240 229 217 214 203 200 198 200 207 202 202 207 210 212 204 202 197 198 194 195 202 206 203 203 207 212 217 218 221 228 229 232
178 155 178 257 267 288 274 240 257 269 280 268 268 278 288 280 261 248 237 224 218 208 200 198 204 209 203 205 210 211 210 208 209 204 197 198 201 202 195 199 204 208 211 218 217 224 231 231 235
160 205 178 169 282 282 275 288 297 293 316 315 301 296 289 287 282 268 260 239 225 212 205 203 206 210 206 207 209 210 209 209 209 202 199 198 199 195 193 197 203 209 213 217 217 229 233 235 239
169 159 110 146 278 285 288 277 262 295 303 314 317 310 303 302 293 281 269 252 235 221 211 202 208 213 211 207 208 211 210 211 208 199 200 200 199 194 190 197 203 209 214 218 220 232 236 239 245
148 161 161 170 200 227 279 269 239 248 270 288 295 296 294 295 291 284 274 257 235 217 204 205 210 214 212 210 210 213 210 208 205 206 205 201 197 195 198 199 203 210 215 217 223 234 236 242 251
178 191 160 188 244 208 249 270 256 259 275 279 284 291 291 287 283 282 282 276 252 230 216 213 213 216 217 211 209 213 211 204 207 210 207 200 198 197 199 199 204 212 216 216 223 237 242 242 251